DW2789 Weather Reports


Display with metric or nautical units.
time (UTC)temp
F
wind
direction
speed
MPH
gust
MPH
rain 1hr
in
rain 24hr
in
rain mn
in
humidity
%
barometer
mb
20260506205937 79 349 10.0 15.0 0.00 0.00 0.00 40 1013.0
20260506204938 78 349 7.0 15.0 0.00 0.00 0.00 44 1013.1
20260506203943 78 346 11.0 17.0 0.00 0.00 0.00 45 1013.1
20260506202933 77 344 4.0 17.0 0.00 0.00 0.00 47 1013.1
20260506201939 77 342 12.0 17.0 0.00 0.00 0.00 46 1013.2
20260506201003 77 340 8.0 14.0 0.00 0.00 0.00 48 1013.0
20260506195945 76 338 8.0 15.0 0.00 0.00 0.00 46 1013.2
20260506194936 76 337 10.0 19.0 0.00 0.00 0.00 47 1013.2
20260506193938 75 336 10.0 17.0 0.00 0.00 0.00 48 1013.3
20260506193004 75 334 9.0 19.0 0.00 0.00 0.00 48 1013.4
20260506191948 75 333 9.0 14.0 0.00 0.00 0.00 50 1013.6
20260506191013 74 331 9.0 16.0 0.00 0.00 0.00 49 1013.8
20260506185938 73 329 10.0 18.0 0.00 0.00 0.00 52 1014.0
20260506184944 73 329 10.0 19.0 0.00 0.00 0.00 52 1014.1
20260506182931 72 322 13.0 21.0 0.00 0.00 0.00 51 1014.2
20260506181954 72 322 10.0 19.0 0.00 0.00 0.00 54 1014.2
20260506180936 72 322 12.0 16.0 0.00 0.00 0.00 52 1014.2
20260506175936 72 319 10.0 19.0 0.00 0.00 0.00 52 1014.3
20260506174936 72 318 11.0 18.0 0.00 0.00 0.00 50 1014.4
20260506173938 72 315 7.0 18.0 0.00 0.00 0.00 51 1014.3
20260506172939 71 314 12.0 18.0 0.00 0.00 0.00 50 1014.4
20260506171942 71 307 14.0 21.0 0.00 0.00 0.00 48 1014.6
20260506170944 70 309 14.0 18.0 0.00 0.00 0.00 49 1014.5
20260506164942 69 315 10.0 17.0 0.00 0.00 0.00 53 1014.4
20260506163948 68 318 8.0 12.0 0.00 0.00 0.00 60 1014.5
20260506162950 67 321 9.0 13.0 0.00 0.00 0.00 63 1014.6
20260506161932 67 319 5.0 14.0 0.00 0.00 0.00 64 1014.6
20260506160935 66 318 9.0 12.0 0.00 0.00 0.00 63 1014.6
20260506155941 65 318 8.0 11.0 0.00 0.00 0.00 64 1014.6
20260506154945 65 318 8.0 13.0 0.00 0.00 0.00 64 1014.6
20260506153947 64 316 9.0 13.0 0.00 0.00 0.00 62 1014.6
20260506153009 64 316 8.0 13.0 0.00 0.00 0.00 63 1014.7
20260506151934 63 312 8.0 13.0 0.00 0.00 0.00 62 1014.8
20260506150956 63 303 7.0 12.0 0.00 0.00 0.00 63 1014.8
20260506145952 62 292 8.0 13.0 0.00 0.00 0.00 65 1014.7
20260506145013 61 190 0.0 0.0 0.00 0.00 0.00 66 1014.7
20260506143950 60 190 0.0 0.0 0.00 0.00 0.00 65 1014.6
20260506142947 59 190 0.0 0.0 0.00 0.00 0.00 65 1014.5
20260506141952 59 190 0.0 0.0 0.00 0.00 0.00 65 1014.4
20260506140935 59 190 0.0 0.0 0.00 0.00 0.00 64 1014.4
20260506135940 58 190 0.0 0.0 0.00 0.00 0.00 64 1014.3
20260506134944 58 190 0.0 0.0 0.00 0.00 0.00 64 1014.2
20260506134010 58 190 0.0 1.0 0.00 0.00 0.00 65 1014.1
20260506132951 58 190 0.0 0.0 0.00 0.00 0.00 63 1013.9
20260506131934 58 190 0.0 0.0 0.00 0.00 0.00 63 1013.7
20260506130936 58 190 0.0 0.0 0.00 0.00 0.00 65 1013.5
20260506125942 58 190 0.0 0.0 0.00 0.00 0.00 63 1013.4
20260506124928 58 190 0.0 3.0 0.00 0.00 0.00 61 1013.3
20260506123934 58 190 2.0 11.0 0.00 0.00 0.00 61 1013.0
20260506122938 58 184 1.0 6.0 0.00 0.00 0.00 61 1012.9
20260506122003 58 184 2.0 7.0 0.00 0.00 0.00 60 1012.8
20260506120943 58 184 3.0 7.0 0.00 0.00 0.00 60 1012.8
20260506115948 58 184 3.0 7.0 0.00 0.00 0.00 60 1012.7
20260506114946 58 184 2.0 7.0 0.00 0.00 0.00 59 1012.7
20260506114008 58 184 0.0 0.0 0.00 0.00 0.00 61 1012.8
20260506112947 58 184 0.0 5.0 0.00 0.00 0.00 59 1012.8
20260506111949 58 184 2.0 11.0 0.00 0.00 0.00 59 1012.8
20260506110930 58 182 2.0 8.0 0.00 0.00 0.00 59 1012.8
20260506105933 58 180 0.0 3.0 0.00 0.00 0.00 61 1012.7
20260506104940 58 180 0.0 4.0 0.00 0.00 0.00 59 1012.7
20260506104002 59 181 0.0 4.0 0.00 0.00 0.00 59 1012.6
20260506102946 59 181 1.0 8.0 0.00 0.00 0.00 58 1012.5
20260506101952 59 180 0.0 7.0 0.00 0.00 0.00 58 1012.4
20260506100933 59 180 0.0 3.0 0.00 0.00 0.00 58 1012.4
20260506100001 59 180 0.0 5.0 0.00 0.00 0.00 58 1012.5
20260506094943 59 180 1.0 9.0 0.00 0.00 0.00 57 1012.3
20260506093945 59 178 0.0 0.0 0.00 0.00 0.00 57 1012.2
20260506092951 59 178 0.0 0.0 0.00 0.00 0.00 56 1012.2
20260506091927 59 178 0.0 0.0 0.00 0.00 0.00 57 1012.1
20260506090957 60 178 0.0 1.0 0.00 0.00 0.00 56 1012.0
20260506085941 60 178 0.0 7.0 0.00 0.00 0.00 55 1011.9
20260506084939 60 178 3.0 8.0 0.00 0.00 0.00 55 1011.8
20260506083946 60 178 0.0 6.0 0.00 0.00 0.00 56 1011.8
20260506082942 60 178 2.0 9.0 0.00 0.00 0.00 55 1011.6
20260506081944 61 178 2.0 8.0 0.00 0.00 0.00 55 1011.6
20260506081008 61 179 2.0 9.0 0.00 0.00 0.00 55 1011.7
20260506072942 61 168 3.0 9.0 0.00 0.00 0.00 55 1011.7
20260506071944 61 170 3.0 7.0 0.00 0.00 0.00 56 1011.6
20260506070945 61 165 3.0 7.0 0.00 0.00 0.00 56 1011.6
20260506061942 60 155 0.0 9.0 0.00 0.00 0.00 59 1011.4
20260506061004 61 155 1.0 7.0 0.00 0.00 0.00 60 1011.4
20260506050956 61 155 1.0 5.0 0.00 0.00 0.00 60 1011.2
20260506044935 62 155 0.0 0.0 0.00 0.00 0.00 60 1011.1
20260506043939 62 155 0.0 0.0 0.00 0.00 0.00 61 1011.1
20260506042945 62 155 0.0 0.0 0.00 0.00 0.00 60 1011.0
20260506041931 62 155 0.0 0.0 0.00 0.00 0.00 60 1010.9
20260506040934 63 155 0.0 0.0 0.00 0.00 0.00 61 1010.8
20260506035937 63 155 0.0 0.0 0.00 0.00 0.00 60 1010.7
20260506034943 64 155 0.0 0.0 0.00 0.00 0.00 59 1010.7
20260506034004 65 155 0.0 0.0 0.00 0.00 0.00 58 1010.5
20260506032930 66 155 0.0 0.0 0.00 0.00 0.00 56 1010.4
20260506031932 68 155 0.0 0.0 0.00 0.00 0.00 54 1010.3
20260506030935 71 155 0.0 0.0 0.00 0.00 0.00 51 1010.2
20260506025939 74 155 0.0 0.0 0.00 0.00 0.00 47 1010.2
20260506023946 78 155 0.0 0.0 0.00 0.00 0.00 45 1010.2
20260506022945 80 155 0.0 0.0 0.00 0.00 0.00 44 1010.2
20260506021947 81 155 0.0 0.0 0.00 0.00 0.00 44 1010.1
20260506020946 81 155 0.0 0.0 0.00 0.00 0.00 43 1010.1
20260506015942 82 155 0.0 0.0 0.00 0.00 0.00 43 1010.1
20260506014944 82 155 0.0 0.0 0.00 0.00 0.00 44 1010.1
20260506013927 83 155 1.0 4.0 0.00 0.00 0.00 42 1010.1
20260506012934 83 155 0.0 0.0 0.00 0.00 0.00 44 1010.0
20260506011937 83 155 0.0 0.0 0.00 0.00 0.00 42 1009.9
20260506010943 83 155 0.0 0.0 0.00 0.00 0.00 45 1009.9
20260506010005 82 155 0.0 0.0 0.00 0.00 0.00 42 1009.9
20260506004931 82 155 0.0 0.0 0.00 0.00 0.00 39 1010.0
20260506003934 82 155 0.0 0.0 0.00 0.00 0.00 43 1010.0
20260506002936 82 155 0.0 0.0 0.00 0.00 0.00 43 1010.0
20260506001938 82 155 0.0 3.0 0.00 0.00 0.00 41 1010.0
20260506000944 82 155 0.0 0.0 0.00 0.00 0.00 41 1010.0
20260505235934 81 155 0.0 0.0 0.00 0.00 0.00 40 1010.1
20260505234936 80 155 0.0 9.0 0.00 0.00 0.00 46 1010.1
20260505233941 81 155 0.0 3.0 0.00 0.00 0.00 45 1010.2
20260505232940 81 155 0.0 0.0 0.00 0.00 0.00 44 1010.2
20260505231941 81 155 0.0 0.0 0.00 0.00 0.00 45 1010.3
20260505230941 80 155 0.0 5.0 0.00 0.00 0.00 46 1010.4
20260505225943 80 155 0.0 0.0 0.00 0.00 0.00 46 1010.5
20260505224942 80 155 1.0 5.0 0.00 0.00 0.00 46 1010.5
20260505223929 80 155 3.0 5.0 0.00 0.00 0.00 45 1010.6
20260505222932 79 155 0.0 8.0 0.00 0.00 0.00 44 1010.7
20260505221935 79 155 0.0 0.0 0.00 0.00 0.00 46 1010.8
20260505220938 78 155 0.0 7.0 0.00 0.00 0.00 50 1010.9
20260505215928 77 155 0.0 7.0 0.00 0.00 0.00 48 1010.8
20260505214934 78 155 3.0 10.0 0.00 0.00 0.00 50 1011.0
20260505213936 77 155 0.0 0.0 0.00 0.00 0.00 50 1011.0
20260505212958 77 155 6.0 9.0 0.00 0.00 0.00 51 1011.0
20260505211940 77 155 3.0 8.0 0.00 0.00 0.00 51 1011.0
20260505210926 77 155 3.0 8.0 0.00 0.00 0.00 54 1011.1